User: anonymous   Login
Location: Borealis Mine
(38.3824°N, 118.7610°W)
Time: 22:01:26
(UTC+00:00)
Language:

Cosmos 1666 - Orbit

View from above orbital plane
View from above orbital plane
View from above satellite
View from above satellite

Ground track
Ground track

The orbit data is extracted from the following two-line orbital elements,

1 15889U 85058A   23336.59739638  .00016017  00000-0  51292-3 0  9991
2 15889  82.4813 164.7001 0013214 101.5223 258.7503 15.32174972100364
Epoch (UTC): 02 December 2023 14:20:15
Eccentricity: 0.0013214
inclination: 82.4813°
perigee height: 460 km
apogee height: 478 km
right ascension of ascending node: 164.7001°
argument of perigee: 101.5223°
revolutions per day: 15.32174972
mean anomaly at epoch: 258.7503°
orbit number at epoch: 10036

The dashed part of the orbit path shows where the satellite is in the earth's shadow,  

DLR